Total_Precipitation_Accumulation
1.75 2.22 2.87 3.55 4.39 5.50 6.17 6.31 6.08 5.41 4.92 4.51 4.27 4.01 3.76 3.47 2.98 2.59 2.37 2.27 2.19 2.20 2.51 2.31 2.34 2.18 2.22 2.29 2.36 2.61 2.73 2.51 2.70 3.07 2.88 2.55 2.27 2.21 2.10 2.03 2.12 2.12 2.27
1.63 2.22 2.99 3.81 4.51 5.05 5.41 5.50 5.14 4.40 3.93 3.71 3.69 3.42 3.21 2.89 2.67 2.43 2.41 2.10 2.05 2.13 2.08 2.29 2.13 2.07 2.31 2.27 2.35 2.58 2.55 2.30 2.47 2.96 3.17 2.91 2.83 2.30 1.71 1.90 2.03 2.10 2.38
1.84 2.58 3.39 4.17 4.50 4.53 4.32 4.00 3.83 3.46 3.38 3.38 3.22 3.00 2.94 2.67 2.50 2.29 2.23 1.93 1.74 1.78 1.90 1.95 1.91 2.05 1.98 2.17 2.32 2.44 2.65 2.61 2.38 2.38 2.85 2.85 2.80 2.53 1.98 1.69 1.80 2.11 2.42
1.99 2.68 3.22 3.45 3.60 3.53 3.25 3.07 3.00 2.94 2.90 2.83 2.75 2.47 2.34 2.33 2.19 2.11 2.13 2.01 1.78 1.77 1.81 1.83 1.98 2.03 1.89 2.17 1.92 2.10 2.48 2.67 2.42 2.41 2.33 2.37 2.55 2.62 2.44 2.07 1.77 1.93 2.07
1.63 1.82 2.02 2.14 2.26 2.29 2.45 2.52 2.66 2.80 2.71 2.66 2.66 2.61 2.33 2.29 2.27 2.27 2.38 2.25 2.02 1.83 1.66 1.83 2.09 2.16 1.99 2.02 2.07 2.33 2.33 2.37 2.32 2.29 2.25 2.39 2.46 2.28 2.34 2.33 2.13 1.96 1.64
1.10 1.18 1.26 1.36 1.57 1.62 1.84 2.04 2.14 2.29 2.47 2.52 2.37 2.32 2.28 2.36 2.42 2.39 2.24 2.06 1.94 1.85 1.76 1.91 2.15 2.16 2.15 2.11 2.10 2.14 2.15 2.29 2.40 2.34 2.20 2.30 2.42 2.42 2.53 2.29 2.19 2.20 1.88
0.86 1.00 1.11 1.21 1.42 1.37 1.45 1.67 1.74 1.75 1.90 1.94 1.92 2.00 2.17 2.24 2.12 2.04 1.98 1.87 1.65 1.67 1.80 1.89 2.12 2.11 2.10 2.01 2.20 2.23 2.13 2.26 2.32 2.28 2.25 2.18 2.11 2.24 2.42 2.44 2.25 2.22 2.10
0.76 0.85 0.85 0.94 1.08 1.08 1.22 1.33 1.42 1.48 1.54 1.65 1.77 1.74 1.90 1.91 1.82 1.93 1.81 1.71 1.49 1.40 1.52 1.68 1.75 1.84 1.89 1.83 2.27 2.14 2.17 2.29 2.16 2.05 2.41 2.28 1.98 2.16 2.29 2.52 2.78 2.62 2.45
0.61 0.68 0.62 0.63 0.78 0.91 1.04 1.13 1.20 1.32 1.35 1.50 1.59 1.57 1.67 1.77 1.83 1.85 1.74 1.57 1.60 1.45 1.50 1.58 1.81 1.95 2.01 2.07 2.33 2.24 2.21 2.39 2.18 2.14 2.33 2.25 2.15 2.13 2.11 2.49 2.89 3.09 2.85
0.54 0.57 0.57 0.53 0.62 0.78 1.05 1.12 1.14 1.28 1.31 1.41 1.44 1.31 1.49 1.63 1.80 1.77 1.68 1.62 1.64 1.59 1.72 1.81 1.96 2.07 2.04 2.07 2.28 2.23 2.33 2.44 2.32 2.29 2.33 2.25 2.19 2.28 2.20 2.35 2.65 2.91 3.10
0.58 0.56 0.55 0.55 0.53 0.66 0.88 0.96 1.12 1.23 1.29 1.37 1.48 1.54 1.56 1.51 1.66 1.70 1.67 1.70 1.73 1.72 1.79 1.90 2.04 2.06 2.13 2.26 2.36 2.19 2.30 2.43 2.60 2.47 2.46 2.49 2.59 2.54 2.42 2.52 2.63 2.81 3.08
0.49 0.53 0.56 0.61 0.58 0.59 0.71 0.88 1.08 1.23 1.28 1.37 1.52 1.64 1.81 1.77 1.71 1.70 1.75 1.83 1.95 2.03 1.98 2.04 2.10 1.98 2.03 2.25 2.33 2.32 2.36 2.40 2.45 2.63 2.88 2.77 2.81 2.75 2.59 2.70 2.66 2.73 3.03
0.60 0.60 0.65 0.69 0.76 0.75 0.76 0.88 1.07 1.26 1.40 1.50 1.63 1.80 1.90 1.79 1.70 1.81 1.91 1.95 2.11 2.28 2.35 2.35 2.20 2.11 2.09 2.16 2.27 2.41 2.42 2.42 2.48 2.63 2.70 2.76 2.97 2.84 2.73 2.64 2.60 2.70 2.86
0.75 0.71 0.69 0.72 0.86 1.03 1.01 1.07 1.34 1.38 1.43 1.69 1.91 1.99 2.03 1.93 1.86 1.96 2.06 2.08 2.15 2.32 2.47 2.43 2.37 2.30 2.18 2.05 2.03 2.11 2.21 2.37 2.53 2.56 2.47 2.57 2.83 2.89 2.88 2.65 2.63 2.77 2.88
0.70 0.65 0.65 0.72 0.84 0.99 1.10 1.22 1.29 1.51 1.64 1.89 2.03 2.07 2.16 2.18 2.19 2.28 2.28 2.21 2.24 2.28 2.44 2.48 2.51 2.48 2.29 2.00 2.07 2.21 2.21 2.38 2.40 2.33 2.21 2.21 2.47 2.71 2.77 2.49 2.51 2.66 2.68
0.71 0.77 0.82 0.85 0.88 0.95 1.06 1.15 1.24 1.52 1.81 2.05 2.29 2.32 2.37 2.36 2.45 2.59 2.65 2.55 2.54 2.67 2.68 2.57 2.51 2.44 2.07 2.19 2.28 2.29 2.29 2.39 2.38 2.31 2.21 2.09 2.07 2.09 2.24 2.36 2.49 2.62 2.60
0.86 0.93 1.04 1.03 1.00 1.04 1.10 1.20 1.34 1.57 1.85 2.09 2.33 2.49 2.56 2.61 2.71 2.80 2.81 2.78 2.87 3.05 3.03 2.87 2.69 2.52 2.45 2.41 2.21 2.19 2.04 2.05 2.11 2.19 2.19 1.90 1.71 1.82 1.74 1.97 2.17 2.28 2.36
0.88 0.95 1.11 1.16 1.14 1.15 1.21 1.37 1.59 1.85 2.13 2.34 2.47 2.58 2.63 2.68 2.75 2.82 2.71 2.75 2.92 2.99 3.01 2.89 2.74 2.61 2.51 2.43 2.15 2.11 1.88 1.85 1.87 1.92 1.95 1.89 1.75 1.74 1.88 1.89 1.82 1.77 1.86
0.96 1.04 1.17 1.29 1.38 1.43 1.49 1.58 1.74 1.98 2.25 2.45 2.49 2.50 2.60 2.70 2.75 2.78 2.80 2.83 2.86 2.76 2.64 2.53 2.51 2.49 2.53 2.53 2.22 2.04 1.80 1.83 1.79 1.78 1.79 1.81 1.71 1.87 1.84 1.80 1.78 1.76 1.78
1.08 1.19 1.21 1.27 1.40 1.51 1.54 1.66 1.87 2.09 2.30 2.47 2.51 2.51 2.65 2.77 2.80 2.87 2.92 2.86 2.77 2.69 2.59 2.43 2.42 2.41 2.37 2.44 2.10 1.95 1.75 1.76 1.76 1.81 1.80 1.80 1.70 1.73 1.66 1.59 1.70 1.68 1.71
1.21 1.26 1.31 1.30 1.34 1.46 1.57 1.72 1.85 2.00 2.15 2.34 2.48 2.64 2.82 2.90 2.92 2.95 2.88 2.79 2.70 2.71 2.67 2.53 2.42 2.37 2.31 2.34 2.08 1.89 1.65 1.75 1.95 1.93 1.84 1.83 1.79 1.50 1.47 1.46 1.49 1.53 1.58
1.24 1.30 1.36 1.46 1.52 1.59 1.64 1.74 1.75 1.87 2.08 2.15 2.29 2.38 2.55 2.68 2.72 2.79 2.76 2.80 2.74 2.63 2.53 2.40 2.27 2.20 2.20 2.10 2.00 1.82 1.65 1.71 1.84 1.89 1.88 1.90 1.82 1.51 1.40 1.28 1.26 1.32 1.29
1.50 1.49 1.41 1.45 1.52 1.60 1.69 1.80 1.82 1.80 1.87 1.97 2.14 2.31 2.41 2.59 2.70 2.74 2.74 2.68 2.59 2.42 2.26 2.16 2.05 2.07 2.12 2.09 1.90 1.69 1.60 1.63 1.65 1.73 1.88 1.77 1.64 1.44 1.22 1.18 1.17 1.16 1.10
1.33 1.44 1.40 1.44 1.63 1.56 1.59 1.72 1.81 1.81 1.86 1.95 2.02 2.15 2.24 2.34 2.56 2.64 2.57 2.43 2.23 2.10 2.06 2.02 2.03 2.08 2.11 2.01 1.82 1.60 1.46 1.49 1.55 1.58 1.64 1.62 1.60 1.50 1.32 1.21 1.13 1.06 1.12
1.17 1.21 1.23 1.29 1.40 1.43 1.46 1.54 1.65 1.71 1.71 1.72 1.74 1.76 1.93 2.10 2.25 2.31 2.24 2.10 1.97 2.04 2.06 2.01 1.97 1.89 1.81 1.88 1.82 1.60 1.50 1.50 1.55 1.50 1.48 1.50 1.59 1.62 1.59 1.53 1.43 1.37 1.39
1.04 1.11 1.14 1.14 1.21 1.31 1.43 1.51 1.67 1.81 1.83 1.79 1.73 1.65 1.63 1.74 1.96 2.17 2.23 2.10 1.87 1.89 1.83 1.76 1.71 1.65 1.60 1.62 1.60 1.53 1.48 1.52 1.55 1.43 1.48 1.60 1.67 1.72 1.73 1.73 1.62 1.50 1.38